Regional Weather Roundup
Issued by NWS

Home | Current Version | Previous Version | Graphics & Text | Print | Product List | Glossary On
Versions: 1 2 3 4 5 6 7 8 9 10 11 12 13 14 15 16 17 18 19 20 21 22 23 24 25 26 27 28 29 30 31 32 33 34 35 36 37 38 39 40 41 42 43 44 45 46 47 48 49 50
000
ASUS45 KABQ 011810
RWRNM
WEATHER ROUNDUP FOR NEW MEXICO
NATIONAL WEATHER SERVICE ALBUQUERQUE NM
1200 PM MDT MON SEP 01 2014

NOTE: "FAIR" MEANS FEW OR NO CLOUDS BELOW 12,000 FEET AGL WITH NO
       SIGNIFICANT WEATHER OR OBSTRUCTIONS TO VISION.

      THIS PRODUCT IS RELEASED AS TWO VERSIONS.  ONE VERSION NEAR
      THE TOP OF THE HOUR CONTAINING PRELIMINARY DATA FROM ALBUQUERQUE
      AND OTHER STATIONS.  A FINAL VERSION WITH ADDITIONAL DATA IS
      ISSUED ABOUT 10 MINUTES AFTER THE HOUR.

NMZ501-503-504-510>518-011900-
NORTHWEST PLATEAU/NORTHCENTRAL MOUNTAINS

CITY           SKY/WX    TMP DP  RH WIND       PRES   REMARKS
FARMINGTON     SUNNY     82  36  19 W10       30.11F
6HR MIN TEMP:  51; 6HR MAX TEMP:  82;

LOS ALAMOS     MOSUNNY   76  37  23 S7        30.23F
SANTA FE       SUNNY     82  36  19 SW12G20   30.16F
6HR MIN TEMP:  51; 6HR MAX TEMP:  83;

ANGEL FIRE     FAIR      69  34  27 W12G21    30.30S

$$
NMZ402-403-502-505>509-011900-
WESTCENTRAL MOUNTAINS/SOUTHWEST MOUNTAINS

CITY           SKY/WX    TMP DP  RH WIND       PRES   REMARKS
GALLUP         SUNNY     82  39  21 S13       30.21F
6HR MIN TEMP:  49; 6HR MAX TEMP:  82;

SILVER CITY    SUNNY     84  32  15 W16G25    30.18S

$$
NMZ407-409-411-412-011900-
SOUTHERN DESERTS

CITY           SKY/WX    TMP DP  RH WIND       PRES   REMARKS
LORDSBURG      FAIR      88  43  20 NW12G17   30.09F
DEMING         SUNNY     92  35  13 W16G28    30.07F
6HR MIN TEMP:  65; 6HR MAX TEMP:  93;

LAS CRUCES     SUNNY     90  36  15 CALM      30.08F
HOLLOMAN AFB   SUNNY     92  40  16 SE5       30.02F
ALAMOGORDO     SUNNY     91  39  16 NW9       30.04F
T OR C         SUNNY     87  39  18 E9        30.09F
6HR MIN TEMP:  69; 6HR MAX TEMP:  88;


$$
NMZ519>523-011900-
CENTRAL VALLEYS/CENTRAL HIGHLANDS

CITY           SKY/WX    TMP DP  RH WIND       PRES   REMARKS
ALBUQUERQUE    MOSUNNY   83  39  21 CALM      30.12F
6HR MIN TEMP:  63; 6HR MAX TEMP:  83;

DOUBLE EAGLE   MOSUNNY   81  39  22 VRB6      30.16F
MORIARTY ARPT  FAIR      83  39  21 NW7       30.16F
6HR MIN TEMP:  51; 6HR MAX TEMP:  83;

CLINES CORNERS SUNNY     80  35  19 NW18G25   30.20F
6HR MIN TEMP:  51; 6HR MAX TEMP:  80;

BELEN          FAIR      86  40  19 NW8       30.11F
6HR MIN TEMP:  61; 6HR MAX TEMP:  86;

SOCORRO        FAIR      87  43  21 SE9       30.09F
6HR MIN TEMP:  67; 6HR MAX TEMP:  87;


$$
NMZ524>526-539-540-011900-
SOUTHCENTRAL MOUNTAINS

CITY           SKY/WX    TMP DP  RH WIND       PRES   REMARKS
RUIDOSO        NOT AVBL

$$
NMZ527>531-011900-
NORTHEAST HIGHLANDS/NORTHEAST PLAINS

CITY           SKY/WX    TMP DP  RH WIND       PRES   REMARKS
LAS VEGAS      SUNNY     79  42  26 SE9G18    30.17F
6HR MIN TEMP:  52; 6HR MAX TEMP:  80;

RATON          SUNNY     77  42  28 S14G20    30.12F
6HR MIN TEMP:  53; 6HR MAX TEMP:  77;

CLAYTON        SUNNY     77  50  38 E9        30.06F
6HR MIN TEMP:  59; 6HR MAX TEMP:  77;


$$
NMZ532>537-011900-
EASTCENTRAL PLAINS

CITY           SKY/WX    TMP DP  RH WIND       PRES   REMARKS
TUCUMCARI      SUNNY     86  53  32 VRB3      29.99F
6HR MIN TEMP:  63; 6HR MAX TEMP:  86;

CANNON AFB     SUNNY     87  52  29 NW7       30.01F
6HR MIN TEMP:  64; 6HR MAX TEMP:  87;

CLOVIS AIRPORT   N/A     86  54  32 NW8       30.02F

$$
NMZ028-029-538-011900-
SOUTHEAST PLAINS

CITY           SKY/WX    TMP DP  RH WIND       PRES   REMARKS
ROSWELL        SUNNY     93  47  20 VRB3      29.97F
6HR MIN TEMP:  64; 6HR MAX TEMP:  93;

CARLSBAD       SUNNY     97  43  15 E9        29.94F
6HR MIN TEMP:  66; 6HR MAX TEMP:  98;

HOBBS          SUNNY     93  45  18 VRB6      29.98F


$$



USA.gov is the U.S. government's official web portal to all federal, state and local government web resources and services.